Time,TemperatureF,DewpointF,PressureIn,WindDirection,WindDirectionDegrees,WindSpeedMPH,WindSpeedGustMPH,Humidity,HourlyPrecipIn,Conditions,Clouds,dailyrainin,SoftwareType,DateUTC
2013-11-21 00:02:00,50.1,37.6,30.02,SSE,165,0.0,7.0,62,0.00,,---,0.00,VWS V14.01,2013-11-21 06:02:00,
2013-11-21 00:07:00,50.2,37.7,30.02,South,178,0.0,5.0,62,0.00,,---,0.00,VWS V14.01,2013-11-21 06:07:00,
2013-11-21 00:12:00,50.2,37.7,30.02,SSE,150,0.0,6.0,62,0.00,,---,0.00,VWS V14.01,2013-11-21 06:12:00,
2013-11-21 00:17:00,50.2,37.7,30.03,South,175,1.0,7.0,62,0.00,,---,0.00,VWS V14.01,2013-11-21 06:17:00,
2013-11-21 00:22:00,50.3,38.2,30.03,SE,139,1.0,7.0,63,0.00,,---,0.00,VWS V14.01,2013-11-21 06:22:00,
2013-11-21 00:27:00,50.2,38.1,30.03,SSE,149,1.0,7.0,63,0.00,,---,0.00,VWS V14.01,2013-11-21 06:27:00,
2013-11-21 00:32:00,50.1,38.0,30.03,SSE,157,2.0,7.0,63,0.00,,---,0.00,VWS V14.01,2013-11-21 06:32:00,
2013-11-21 00:37:00,50.1,38.0,30.03,SSE,148,0.0,4.0,63,0.00,,---,0.00,VWS V14.01,2013-11-21 06:37:00,
2013-11-21 00:42:00,50.1,38.0,30.03,SSE,155,0.0,4.0,63,0.00,,---,0.00,VWS V14.01,2013-11-21 06:42:00,
2013-11-21 00:47:00,50.1,38.0,30.04,South,180,2.0,4.0,63,0.00,,---,0.00,VWS V14.01,2013-11-21 06:47:00,
2013-11-21 00:52:00,50.0,38.3,30.04,SE,146,3.0,4.0,64,0.00,,---,0.00,VWS V14.01,2013-11-21 06:52:00,
2013-11-21 00:57:00,50.1,38.4,30.04,South,184,3.0,4.0,64,0.00,,---,0.00,VWS V14.01,2013-11-21 06:57:00,
2013-11-21 01:02:00,50.1,38.4,30.04,SSE,155,0.0,4.0,64,0.00,,---,0.00,VWS V14.01,2013-11-21 07:02:00,
2013-11-21 01:07:00,50.1,38.4,30.04,South,186,0.0,6.0,64,0.00,,---,0.00,VWS V14.01,2013-11-21 07:07:00,
2013-11-21 01:12:00,50.1,38.4,30.04,SSE,165,0.0,6.0,64,0.00,,---,0.00,VWS V14.01,2013-11-21 07:12:00,
2013-11-21 01:17:00,50.1,38.8,30.05,South,185,6.0,6.0,65,0.00,,---,0.00,VWS V14.01,2013-11-21 07:17:00,
2013-11-21 01:22:00,50.1,38.8,30.05,SSE,164,1.0,6.0,65,0.00,,---,0.00,VWS V14.01,2013-11-21 07:22:00,
2013-11-21 01:27:00,50.1,38.8,30.05,South,169,0.0,6.0,65,0.00,,---,0.00,VWS V14.01,2013-11-21 07:27:00,
2013-11-21 01:32:00,50.1,38.8,30.06,South,182,1.0,6.0,65,0.00,,---,0.00,VWS V14.01,2013-11-21 07:32:00,
2013-11-21 01:37:00,50.2,38.9,30.06,SSE,163,3.0,4.0,65,0.00,,---,0.00,VWS V14.01,2013-11-21 07:37:00,
2013-11-21 01:42:00,50.2,38.9,30.06,South,172,0.0,4.0,65,0.00,,---,0.00,VWS V14.01,2013-11-21 07:42:00,
2013-11-21 01:47:00,50.2,38.9,30.07,South,169,1.0,4.0,65,0.00,,---,0.00,VWS V14.01,2013-11-21 07:47:00,
2013-11-21 01:52:00,50.2,38.9,30.07,South,177,1.0,4.0,65,0.00,,---,0.00,VWS V14.01,2013-11-21 07:52:00,
2013-11-21 01:57:00,50.2,38.9,30.07,SSE,161,0.0,4.0,65,0.00,,---,0.00,VWS V14.01,2013-11-21 07:57:00,
2013-11-21 02:02:00,50.2,38.9,30.08,SSE,161,0.0,4.0,65,0.00,,---,0.00,VWS V14.01,2013-11-21 08:02:00,
2013-11-21 02:07:00,50.1,39.2,30.08,SSE,152,0.0,4.0,66,0.00,,---,0.00,VWS V14.01,2013-11-21 08:07:00,
2013-11-21 02:12:00,50.1,39.2,30.08,SSE,148,1.0,4.0,66,0.00,,---,0.00,VWS V14.01,2013-11-21 08:12:00,
2013-11-21 02:17:00,50.0,39.1,30.08,SSE,148,0.0,4.0,66,0.00,,---,0.00,VWS V14.01,2013-11-21 08:17:00,
2013-11-21 02:22:00,49.9,39.4,30.08,SSW,194,0.0,5.0,67,0.00,,---,0.00,VWS V14.01,2013-11-21 08:22:00,
2013-11-21 02:27:00,49.9,39.0,30.08,South,175,0.0,5.0,66,0.00,,---,0.00,VWS V14.01,2013-11-21 08:27:00,
2013-11-21 02:32:00,49.7,39.2,30.07,SSE,163,0.0,5.0,67,0.00,,---,0.00,VWS V14.01,2013-11-21 08:32:00,
2013-11-21 02:37:00,49.6,39.5,30.07,SSE,149,0.0,3.0,68,0.00,,---,0.00,VWS V14.01,2013-11-21 08:37:00,
2013-11-21 02:42:00,49.5,39.4,30.07,South,180,0.0,3.0,68,0.00,,---,0.00,VWS V14.01,2013-11-21 08:42:00,
2013-11-21 02:47:00,49.5,39.4,30.07,SSE,160,0.0,3.0,68,0.00,,---,0.00,VWS V14.01,2013-11-21 08:47:00,
2013-11-21 02:52:00,49.4,39.3,30.07,SE,130,0.0,3.0,68,0.00,,---,0.00,VWS V14.01,2013-11-21 08:52:00,
2013-11-21 02:57:00,49.4,39.3,30.07,SSE,156,0.0,4.0,68,0.00,,---,0.00,VWS V14.01,2013-11-21 08:57:00,
2013-11-21 03:02:00,49.3,39.2,30.06,SSE,150,0.0,4.0,68,0.00,,---,0.00,VWS V14.01,2013-11-21 09:02:00,
2013-11-21 03:07:00,49.2,39.5,30.06,SE,136,0.0,1.0,69,0.00,,---,0.00,VWS V14.01,2013-11-21 09:07:00,
2013-11-21 03:12:00,49.1,39.4,30.06,SSE,152,0.0,1.0,69,0.00,,---,0.00,VWS V14.01,2013-11-21 09:12:00,
2013-11-21 03:17:00,49.0,39.3,30.05,ESE,112,0.0,3.0,69,0.00,,---,0.00,VWS V14.01,2013-11-21 09:17:00,
2013-11-21 03:22:00,48.9,39.2,30.05,SE,137,0.0,3.0,69,0.00,,---,0.00,VWS V14.01,2013-11-21 09:22:00,
2013-11-21 03:27:00,48.8,39.1,30.05,SE,133,2.0,4.0,69,0.00,,---,0.00,VWS V14.01,2013-11-21 09:27:00,
2013-11-21 03:32:00,48.8,39.1,30.05,SSE,155,0.0,4.0,69,0.00,,---,0.00,VWS V14.01,2013-11-21 09:32:00,
2013-11-21 03:37:00,48.8,39.5,30.05,SE,131,3.0,3.0,70,0.00,,---,0.00,VWS V14.01,2013-11-21 09:37:00,
2013-11-21 03:42:00,48.7,39.4,30.05,SSE,156,0.0,3.0,70,0.00,,---,0.00,VWS V14.01,2013-11-21 09:42:00,
2013-11-21 03:47:00,48.7,39.4,30.06,South,175,0.0,5.0,70,0.00,,---,0.00,VWS V14.01,2013-11-21 09:47:00,
2013-11-21 03:52:00,48.7,39.4,30.06,SSE,155,0.0,5.0,70,0.00,,---,0.00,VWS V14.01,2013-11-21 09:52:00,
2013-11-21 03:57:00,48.7,39.4,30.06,SSE,150,0.0,5.0,70,0.00,,---,0.00,VWS V14.01,2013-11-21 09:57:00,
2013-11-21 04:02:00,48.7,39.4,30.06,SSE,158,0.0,5.0,70,0.00,,---,0.00,VWS V14.01,2013-11-21 10:02:00,
2013-11-21 04:07:00,48.6,39.6,30.06,SSE,159,0.0,1.0,71,0.00,,---,0.00,VWS V14.01,2013-11-21 10:07:00,
2013-11-21 04:12:00,48.5,39.5,30.06,SSE,159,0.0,3.0,71,0.00,,---,0.00,VWS V14.01,2013-11-21 10:12:00,
2013-11-21 04:17:00,48.5,39.5,30.06,SSE,167,0.0,4.0,71,0.00,,---,0.00,VWS V14.01,2013-11-21 10:17:00,
2013-11-21 04:22:00,48.4,39.8,30.06,SE,144,3.0,4.0,72,0.00,,---,0.00,VWS V14.01,2013-11-21 10:22:00,
2013-11-21 04:27:00,48.5,39.9,30.06,SE,131,1.0,4.0,72,0.00,,---,0.00,VWS V14.01,2013-11-21 10:27:00,
2013-11-21 04:32:00,48.4,39.8,30.06,SSE,160,0.0,4.0,72,0.00,,---,0.00,VWS V14.01,2013-11-21 10:32:00,
2013-11-21 04:37:00,48.3,39.7,30.06,SE,141,0.0,3.0,72,0.00,,---,0.00,VWS V14.01,2013-11-21 10:37:00,
2013-11-21 04:42:00,48.3,39.7,30.06,South,178,2.0,4.0,72,0.00,,---,0.00,VWS V14.01,2013-11-21 10:42:00,
2013-11-21 04:47:00,48.2,39.6,30.07,SE,136,0.0,4.0,72,0.00,,---,0.00,VWS V14.01,2013-11-21 10:47:00,
2013-11-21 04:52:00,48.1,39.9,30.07,SE,136,0.0,4.0,73,0.00,,---,0.00,VWS V14.01,2013-11-21 10:52:00,
2013-11-21 04:57:00,47.9,39.7,30.07,SE,136,0.0,4.0,73,0.00,,---,0.00,VWS V14.01,2013-11-21 10:57:00,
2013-11-21 05:02:00,47.7,39.5,30.06,SE,136,0.0,4.0,73,0.00,,---,0.00,VWS V14.01,2013-11-21 11:02:00,
2013-11-21 05:07:00,47.5,39.6,30.06,SSE,148,0.0,3.0,74,0.00,,---,0.00,VWS V14.01,2013-11-21 11:07:00,
2013-11-21 05:12:00,47.4,39.5,30.06,SSE,150,2.0,3.0,74,0.00,,---,0.00,VWS V14.01,2013-11-21 11:12:00,
2013-11-21 05:17:00,47.4,39.5,30.07,SE,139,0.0,3.0,74,0.00,,---,0.00,VWS V14.01,2013-11-21 11:17:00,
2013-11-21 05:22:00,47.3,39.8,30.07,SSE,151,0.0,3.0,75,0.00,,---,0.00,VWS V14.01,2013-11-21 11:22:00,
2013-11-21 05:27:00,47.2,39.7,30.07,SSE,147,1.0,3.0,75,0.00,,---,0.00,VWS V14.01,2013-11-21 11:27:00,
2013-11-21 05:32:00,47.2,39.7,30.07,ESE,119,0.0,3.0,75,0.00,,---,0.00,VWS V14.01,2013-11-21 11:32:00,
2013-11-21 05:37:00,47.1,39.6,30.07,SE,141,0.0,2.0,75,0.00,,---,0.00,VWS V14.01,2013-11-21 11:37:00,
2013-11-21 05:42:00,47.0,39.8,30.07,SE,134,2.0,3.0,76,0.00,,---,0.00,VWS V14.01,2013-11-21 11:42:00,
2013-11-21 05:47:00,47.0,39.8,30.06,SE,134,0.0,3.0,76,0.00,,---,0.00,VWS V14.01,2013-11-21 11:47:00,
2013-11-21 05:52:00,47.0,39.8,30.06,SE,134,0.0,3.0,76,0.00,,---,0.00,VWS V14.01,2013-11-21 11:52:00,
2013-11-21 05:57:00,47.0,39.8,30.06,ESE,121,0.0,3.0,76,0.00,,---,0.00,VWS V14.01,2013-11-21 11:57:00,
2013-11-21 06:02:00,47.1,39.9,30.07,SSE,150,0.0,4.0,76,0.00,,---,0.00,VWS V14.01,2013-11-21 12:02:00,
2013-11-21 06:07:00,47.0,40.2,30.07,SSE,149,0.0,1.0,77,0.00,,---,0.00,VWS V14.01,2013-11-21 12:07:00,
2013-11-21 06:12:00,46.9,40.1,30.07,SSE,149,0.0,1.0,77,0.00,,---,0.00,VWS V14.01,2013-11-21 12:12:00,
2013-11-21 06:17:00,46.8,40.3,30.07,SSE,163,0.0,4.0,78,0.00,,---,0.00,VWS V14.01,2013-11-21 12:17:00,
2013-11-21 06:22:00,46.8,40.3,30.07,South,172,2.0,4.0,78,0.00,,---,0.00,VWS V14.01,2013-11-21 12:22:00,
2013-11-21 06:27:00,46.8,40.3,30.07,SSE,167,0.0,4.0,78,0.00,,---,0.00,VWS V14.01,2013-11-21 12:27:00,
2013-11-21 06:32:00,47.0,40.5,30.08,SSE,149,0.0,4.0,78,0.00,,---,0.00,VWS V14.01,2013-11-21 12:32:00,
2013-11-21 06:37:00,47.0,40.5,30.08,SSE,147,0.0,2.0,78,0.00,,---,0.00,VWS V14.01,2013-11-21 12:37:00,
2013-11-21 06:42:00,47.0,40.8,30.08,SSE,162,0.0,2.0,79,0.00,,---,0.00,VWS V14.01,2013-11-21 12:42:00,
2013-11-21 06:47:00,47.1,40.9,30.08,SSE,164,0.0,2.0,79,0.00,,---,0.00,VWS V14.01,2013-11-21 12:47:00,
2013-11-21 06:52:00,47.2,41.0,30.08,SSE,160,0.0,5.0,79,0.00,,---,0.00,VWS V14.01,2013-11-21 12:52:00,
2013-11-21 06:57:00,47.1,40.9,30.08,SE,137,0.0,5.0,79,0.00,,---,0.00,VWS V14.01,2013-11-21 12:57:00,
2013-11-21 07:01:00,47.0,41.2,30.08,ESE,113,0.0,5.0,80,0.00,,---,0.00,VWS V14.01,2013-11-21 13:01:00,
2013-11-21 07:06:00,47.3,41.5,30.08,SE,137,2.0,4.0,80,0.00,,---,0.00,VWS V14.01,2013-11-21 13:06:00,
2013-11-21 07:11:00,47.6,41.8,30.08,SSE,153,0.0,4.0,80,0.00,,---,0.00,VWS V14.01,2013-11-21 13:11:00,
2013-11-21 07:16:00,47.8,41.9,30.09,SE,144,3.0,4.0,80,0.00,,---,0.00,VWS V14.01,2013-11-21 13:16:00,
2013-11-21 07:21:00,48.1,42.2,30.09,SSE,164,1.0,6.0,80,0.00,,---,0.00,VWS V14.01,2013-11-21 13:21:00,
2013-11-21 07:26:00,48.5,42.3,30.09,South,184,0.0,6.0,79,0.00,,---,0.00,VWS V14.01,2013-11-21 13:26:00,
2013-11-21 07:31:00,48.7,42.5,30.10,SSE,163,0.0,6.0,79,0.00,,---,0.00,VWS V14.01,2013-11-21 13:31:00,
2013-11-21 07:36:00,48.9,42.7,30.10,SSW,212,1.0,2.0,79,0.00,,---,0.00,VWS V14.01,2013-11-21 13:36:00,
2013-11-21 07:41:00,49.0,42.8,30.10,SW,227,0.0,3.0,79,0.00,,---,0.00,VWS V14.01,2013-11-21 13:41:00,
2013-11-21 07:46:00,49.3,43.1,30.11,SW,227,0.0,3.0,79,0.00,,---,0.00,VWS V14.01,2013-11-21 13:46:00,
2013-11-21 07:51:00,49.7,43.5,30.11,SE,146,0.0,3.0,79,0.00,,---,0.00,VWS V14.01,2013-11-21 13:51:00,
2013-11-21 07:56:00,50.0,43.4,30.11,SSE,165,0.0,3.0,78,0.00,,---,0.00,VWS V14.01,2013-11-21 13:56:00,
2013-11-21 08:01:00,50.2,43.6,30.11,SSE,167,0.0,5.0,78,0.00,,---,0.00,VWS V14.01,2013-11-21 14:01:00,
2013-11-21 08:06:00,50.4,43.8,30.11,SSW,203,0.0,6.0,78,0.00,,---,0.00,VWS V14.01,2013-11-21 14:06:00,
2013-11-21 08:11:00,50.5,43.9,30.11,SSE,162,0.0,7.0,78,0.00,,---,0.00,VWS V14.01,2013-11-21 14:11:00,
2013-11-21 08:16:00,50.6,44.0,30.11,SSE,150,1.0,7.0,78,0.00,,---,0.00,VWS V14.01,2013-11-21 14:16:00,
2013-11-21 08:21:00,50.9,44.3,30.11,SSW,211,0.0,7.0,78,0.00,,---,0.00,VWS V14.01,2013-11-21 14:21:00,
2013-11-21 08:26:00,51.3,44.7,30.11,South,177,0.0,7.0,78,0.00,,---,0.00,VWS V14.01,2013-11-21 14:26:00,
2013-11-21 08:31:00,51.9,45.3,30.11,West,264,4.0,7.0,78,0.00,,---,0.00,VWS V14.01,2013-11-21 14:31:00,
2013-11-21 08:36:00,52.8,45.5,30.11,SSE,155,0.0,4.0,76,0.00,,---,0.00,VWS V14.01,2013-11-21 14:36:00,
2013-11-21 08:41:00,53.3,45.9,30.11,SSE,154,5.0,5.0,76,0.00,,---,0.00,VWS V14.01,2013-11-21 14:41:00,
2013-11-21 08:46:00,53.8,46.1,30.11,SW,222,1.0,9.0,75,0.00,,---,0.00,VWS V14.01,2013-11-21 14:46:00,
2013-11-21 08:51:00,54.6,46.5,30.11,SSW,211,3.0,11.0,74,0.00,,---,0.00,VWS V14.01,2013-11-21 14:51:00,
2013-11-21 08:56:00,54.9,46.4,30.11,SSW,204,1.0,11.0,73,0.00,,---,0.00,VWS V14.01,2013-11-21 14:56:00,
2013-11-21 09:01:00,55.0,46.5,30.10,SSW,198,7.0,11.0,73,0.00,,---,0.00,VWS V14.01,2013-11-21 15:01:00,
2013-11-21 09:06:00,55.2,46.7,30.10,SE,146,2.0,7.0,73,0.00,,---,0.00,VWS V14.01,2013-11-21 15:06:00,
2013-11-21 09:11:00,55.5,47.0,30.10,SSE,163,3.0,7.0,73,0.00,,---,0.00,VWS V14.01,2013-11-21 15:11:00,
2013-11-21 09:16:00,55.5,47.0,30.11,SSW,197,6.0,12.0,73,0.00,,---,0.00,VWS V14.01,2013-11-21 15:16:00,
2013-11-21 09:21:00,55.5,47.0,30.11,SSW,198,7.0,12.0,73,0.00,,---,0.00,VWS V14.01,2013-11-21 15:21:00,
2013-11-21 09:26:00,55.5,47.0,30.11,SE,129,4.0,12.0,73,0.00,,---,0.00,VWS V14.01,2013-11-21 15:26:00,
2013-11-21 09:31:00,55.5,47.0,30.11,SSW,193,4.0,12.0,73,0.00,,---,0.00,VWS V14.01,2013-11-21 15:31:00,
2013-11-21 09:36:00,55.7,47.5,30.11,SSE,156,0.0,11.0,74,0.00,,---,0.00,VWS V14.01,2013-11-21 15:36:00,
2013-11-21 09:41:00,55.9,47.7,30.11,SE,134,1.0,11.0,74,0.00,,---,0.00,VWS V14.01,2013-11-21 15:41:00,
2013-11-21 09:46:00,56.6,48.4,30.11,South,187,4.0,11.0,74,0.00,,---,0.00,VWS V14.01,2013-11-21 15:46:00,
2013-11-21 09:51:00,57.3,48.7,30.11,South,171,10.0,11.0,73,0.00,,---,0.00,VWS V14.01,2013-11-21 15:51:00,
2013-11-21 09:56:00,58.1,49.5,30.11,SSE,165,4.0,11.0,73,0.00,,---,0.00,VWS V14.01,2013-11-21 15:56:00,
2013-11-21 10:01:00,58.5,48.8,30.10,SSE,166,2.0,11.0,70,0.00,,---,0.00,VWS V14.01,2013-11-21 16:01:00,
2013-11-21 10:06:00,58.4,49.0,30.10,SSW,213,12.0,15.0,71,0.00,,---,0.00,VWS V14.01,2013-11-21 16:06:00,
2013-11-21 10:11:00,58.1,49.1,30.10,SE,144,0.0,15.0,72,0.00,,---,0.00,VWS V14.01,2013-11-21 16:11:00,
2013-11-21 10:16:00,57.7,48.8,30.09,SSE,160,7.0,15.0,72,0.00,,---,0.00,VWS V14.01,2013-11-21 16:16:00,
2013-11-21 10:21:00,57.7,49.1,30.09,SE,133,7.0,15.0,73,0.00,,---,0.00,VWS V14.01,2013-11-21 16:21:00,
2013-11-21 10:26:00,58.5,49.9,30.09,SW,217,2.0,15.0,73,0.00,,---,0.00,VWS V14.01,2013-11-21 16:26:00,
2013-11-21 10:31:00,59.5,50.1,30.08,South,171,3.0,15.0,71,0.00,,---,0.00,VWS V14.01,2013-11-21 16:31:00,
2013-11-21 10:36:00,60.2,50.0,30.08,South,186,4.0,12.0,69,0.00,,---,0.00,VWS V14.01,2013-11-21 16:36:00,
2013-11-21 10:41:00,60.2,50.0,30.08,SSE,161,0.0,12.0,69,0.00,,---,0.00,VWS V14.01,2013-11-21 16:41:00,
2013-11-21 10:46:00,60.2,50.0,30.08,SE,129,3.0,12.0,69,0.00,,---,0.00,VWS V14.01,2013-11-21 16:46:00,
2013-11-21 10:51:00,60.3,50.5,30.08,SE,142,1.0,12.0,70,0.00,,---,0.00,VWS V14.01,2013-11-21 16:51:00,
2013-11-21 10:56:00,60.7,50.5,30.08,South,188,1.0,12.0,69,0.00,,---,0.00,VWS V14.01,2013-11-21 16:56:00,
2013-11-21 11:01:00,61.0,50.8,30.07,SE,131,0.0,12.0,69,0.00,,---,0.00,VWS V14.01,2013-11-21 17:01:00,
2013-11-21 11:06:00,61.7,51.0,30.07,SSE,165,7.0,7.0,68,0.00,,---,0.00,VWS V14.01,2013-11-21 17:06:00,
2013-11-21 11:11:00,61.5,50.5,30.07,SSE,153,6.0,14.0,67,0.00,,---,0.00,VWS V14.01,2013-11-21 17:11:00,
2013-11-21 11:16:00,61.3,50.7,30.07,South,179,1.0,14.0,68,0.00,,---,0.00,VWS V14.01,2013-11-21 17:16:00,
2013-11-21 11:21:00,61.2,50.6,30.07,SSE,150,5.0,14.0,68,0.00,,---,0.00,VWS V14.01,2013-11-21 17:21:00,
2013-11-21 11:26:00,60.9,50.3,30.07,SE,143,3.0,14.0,68,0.00,,---,0.00,VWS V14.01,2013-11-21 17:26:00,
2013-11-21 11:31:00,60.9,50.7,30.06,SE,128,5.0,14.0,69,0.00,,---,0.00,VWS V14.01,2013-11-21 17:31:00,
2013-11-21 11:36:00,61.0,50.8,30.06,South,174,10.0,10.0,69,0.00,,---,0.00,VWS V14.01,2013-11-21 17:36:00,
2013-11-21 11:41:00,61.4,51.2,30.06,SSE,147,2.0,11.0,69,0.00,,---,0.00,VWS V14.01,2013-11-21 17:41:00,
2013-11-21 11:46:00,61.8,51.1,30.05,South,182,0.0,11.0,68,0.00,,---,0.00,VWS V14.01,2013-11-21 17:46:00,
2013-11-21 11:51:00,62.1,51.0,30.05,SSE,165,0.0,11.0,67,0.00,,---,0.00,VWS V14.01,2013-11-21 17:51:00,
2013-11-21 11:56:00,62.4,51.3,30.05,South,171,3.0,11.0,67,0.00,,---,0.00,VWS V14.01,2013-11-21 17:56:00,
2013-11-21 12:01:00,62.5,51.4,30.05,South,176,4.0,11.0,67,0.00,,---,0.00,VWS V14.01,2013-11-21 18:01:00,
2013-11-21 12:06:00,62.2,51.1,30.05,SSE,159,5.0,13.0,67,0.00,,---,0.00,VWS V14.01,2013-11-21 18:06:00,
2013-11-21 12:11:00,62.3,51.2,30.05,SSE,159,3.0,13.0,67,0.00,,---,0.00,VWS V14.01,2013-11-21 18:11:00,
2013-11-21 12:16:00,63.0,51.9,30.04,SW,216,3.0,13.0,67,0.00,,---,0.00,VWS V14.01,2013-11-21 18:16:00,
2013-11-21 12:21:00,63.9,52.3,30.04,SSE,161,3.0,13.0,66,0.00,,---,0.00,VWS V14.01,2013-11-21 18:21:00,
2013-11-21 12:26:00,64.5,52.1,30.04,SSE,167,3.0,13.0,64,0.00,,---,0.00,VWS V14.01,2013-11-21 18:26:00,
2013-11-21 12:31:00,64.7,52.3,30.04,West,280,3.0,13.0,64,0.00,,---,0.00,VWS V14.01,2013-11-21 18:31:00,
2013-11-21 12:36:00,65.3,52.8,30.04,SSW,207,0.0,11.0,64,0.00,,---,0.00,VWS V14.01,2013-11-21 18:36:00,
2013-11-21 12:41:00,65.1,52.2,30.04,SE,131,1.0,12.0,63,0.00,,---,0.00,VWS V14.01,2013-11-21 18:41:00,
2013-11-21 12:46:00,65.2,52.7,30.04,SSE,168,4.0,12.0,64,0.00,,---,0.00,VWS V14.01,2013-11-21 18:46:00,
2013-11-21 12:51:00,65.5,52.6,30.04,SSW,193,0.0,12.0,63,0.00,,---,0.00,VWS V14.01,2013-11-21 18:51:00,
2013-11-21 12:56:00,65.5,53.0,30.04,SSE,166,1.0,12.0,64,0.00,,---,0.00,VWS V14.01,2013-11-21 18:56:00,
2013-11-21 13:01:00,64.9,52.5,30.04,South,186,0.0,12.0,64,0.00,,---,0.00,VWS V14.01,2013-11-21 19:01:00,
2013-11-21 13:06:00,64.5,52.1,30.04,South,182,1.0,8.0,64,0.00,,---,0.00,VWS V14.01,2013-11-21 19:06:00,
2013-11-21 13:11:00,64.1,52.1,30.04,SSE,167,4.0,11.0,65,0.00,,---,0.00,VWS V14.01,2013-11-21 19:11:00,
2013-11-21 13:16:00,64.0,52.4,30.04,SSE,148,1.0,11.0,66,0.00,,---,0.00,VWS V14.01,2013-11-21 19:16:00,
2013-11-21 13:21:00,64.0,52.4,30.03,SSE,158,0.0,11.0,66,0.00,,---,0.00,VWS V14.01,2013-11-21 19:21:00,
2013-11-21 13:26:00,64.2,52.6,30.03,South,187,0.0,11.0,66,0.00,,---,0.00,VWS V14.01,2013-11-21 19:26:00,
2013-11-21 13:31:00,64.3,52.3,30.03,South,169,1.0,11.0,65,0.00,,---,0.00,VWS V14.01,2013-11-21 19:31:00,
2013-11-21 13:36:00,64.3,52.3,30.03,South,184,0.0,1.0,65,0.00,,---,0.00,VWS V14.01,2013-11-21 19:36:00,
2013-11-21 13:41:00,64.4,52.4,30.03,SSW,195,0.0,4.0,65,0.00,,---,0.00,VWS V14.01,2013-11-21 19:41:00,
2013-11-21 13:46:00,64.6,52.6,30.03,South,170,3.0,6.0,65,0.00,,---,0.00,VWS V14.01,2013-11-21 19:46:00,
2013-11-21 13:51:00,64.5,52.5,30.03,South,179,0.0,6.0,65,0.00,,---,0.00,VWS V14.01,2013-11-21 19:51:00,
2013-11-21 13:56:00,64.5,52.5,30.03,South,175,0.0,6.0,65,0.00,,---,0.00,VWS V14.01,2013-11-21 19:56:00,
2013-11-21 14:01:00,64.4,52.8,30.03,South,174,0.0,6.0,66,0.00,,---,0.00,VWS V14.01,2013-11-21 20:01:00,
2013-11-21 14:06:00,64.4,52.8,30.02,South,188,2.0,6.0,66,0.00,,---,0.00,VWS V14.01,2013-11-21 20:06:00,
2013-11-21 14:11:00,64.3,52.7,30.02,South,188,4.0,6.0,66,0.00,,---,0.00,VWS V14.01,2013-11-21 20:11:00,
2013-11-21 14:16:00,64.0,52.4,30.02,South,178,5.0,7.0,66,0.00,,---,0.00,VWS V14.01,2013-11-21 20:16:00,
2013-11-21 14:21:00,64.0,52.4,30.03,SSE,150,0.0,7.0,66,0.00,,---,0.00,VWS V14.01,2013-11-21 20:21:00,
2013-11-21 14:26:00,64.0,52.8,30.03,SSE,155,1.0,7.0,67,0.00,,---,0.00,VWS V14.01,2013-11-21 20:26:00,
2013-11-21 14:31:00,63.9,53.1,30.03,South,175,0.0,7.0,68,0.00,,---,0.00,VWS V14.01,2013-11-21 20:31:00,
2013-11-21 14:36:00,63.6,52.9,30.02,SSE,168,2.0,9.0,68,0.00,,---,0.00,VWS V14.01,2013-11-21 20:36:00,
2013-11-21 14:41:00,63.3,52.2,30.02,SW,226,0.0,9.0,67,0.00,,---,0.00,VWS V14.01,2013-11-21 20:41:00,
2013-11-21 14:46:00,63.0,52.3,30.02,SSW,195,1.0,9.0,68,0.00,,---,0.00,VWS V14.01,2013-11-21 20:46:00,
2013-11-21 14:51:00,62.8,52.9,30.04,South,179,0.0,9.0,70,0.00,,---,0.00,VWS V14.01,2013-11-21 20:51:00,
2013-11-21 14:56:00,62.5,53.0,30.04,SSE,161,0.0,9.0,71,0.00,,---,0.00,VWS V14.01,2013-11-21 20:56:00,
2013-11-21 15:01:00,62.0,53.3,30.04,SSE,160,0.0,9.0,73,0.00,,---,0.00,VWS V14.01,2013-11-21 21:01:00,
2013-11-21 15:06:00,61.6,53.6,30.04,SSE,159,0.0,0.0,75,0.00,,---,0.00,VWS V14.01,2013-11-21 21:06:00,
2013-11-21 15:11:00,60.8,53.5,30.04,SSE,157,0.0,3.0,77,0.01,,---,0.01,VWS V14.01,2013-11-21 21:11:00,
2013-11-21 15:16:00,60.4,53.5,30.04,SSE,159,0.0,3.0,78,0.01,,---,0.01,VWS V14.01,2013-11-21 21:16:00,
2013-11-21 15:21:00,60.2,53.7,30.04,SSE,158,0.0,3.0,79,0.02,,---,0.02,VWS V14.01,2013-11-21 21:21:00,
2013-11-21 15:26:00,59.9,53.7,30.04,SSE,158,0.0,3.0,80,0.02,,---,0.02,VWS V14.01,2013-11-21 21:26:00,
2013-11-21 15:31:00,59.6,54.1,30.04,SSE,158,0.0,3.0,82,0.02,,---,0.02,VWS V14.01,2013-11-21 21:31:00,
2013-11-21 15:36:00,59.3,54.2,30.04,SSE,158,0.0,0.0,83,0.02,,---,0.02,VWS V14.01,2013-11-21 21:36:00,
2013-11-21 15:41:00,59.0,54.5,30.04,SSE,159,0.0,0.0,85,0.03,,---,0.03,VWS V14.01,2013-11-21 21:41:00,
2013-11-21 15:46:00,59.0,54.8,30.04,SSE,159,0.0,0.0,86,0.03,,---,0.03,VWS V14.01,2013-11-21 21:46:00,
2013-11-21 15:51:00,58.7,54.5,30.04,SSE,158,0.0,0.0,86,0.04,,---,0.04,VWS V14.01,2013-11-21 21:51:00,
2013-11-21 15:56:00,58.3,54.5,30.04,SSE,158,0.0,0.0,87,0.04,,---,0.04,VWS V14.01,2013-11-21 21:56:00,
2013-11-21 16:01:00,57.9,54.4,30.04,SSE,157,0.0,0.0,88,0.04,,---,0.04,VWS V14.01,2013-11-21 22:01:00,
2013-11-21 16:06:00,57.7,54.5,30.06,SSE,157,0.0,1.0,89,0.04,,---,0.04,VWS V14.01,2013-11-21 22:06:00,
2013-11-21 16:11:00,57.5,54.3,30.06,SSE,165,0.0,1.0,89,0.04,,---,0.04,VWS V14.01,2013-11-21 22:11:00,
2013-11-21 16:16:00,57.3,54.4,30.06,SSE,165,0.0,1.0,90,0.04,,---,0.04,VWS V14.01,2013-11-21 22:16:00,
2013-11-21 16:21:00,57.2,54.6,30.07,SSE,165,0.0,1.0,91,0.04,,---,0.04,VWS V14.01,2013-11-21 22:21:00,
2013-11-21 16:26:00,57.1,54.5,30.07,SSE,166,0.0,1.0,91,0.04,,---,0.04,VWS V14.01,2013-11-21 22:26:00,
2013-11-21 16:31:00,57.1,54.5,30.07,SSE,166,0.0,1.0,91,0.05,,---,0.05,VWS V14.01,2013-11-21 22:31:00,
2013-11-21 16:36:00,56.9,54.3,30.08,SSE,165,0.0,0.0,91,0.04,,---,0.06,VWS V14.01,2013-11-21 22:36:00,
2013-11-21 16:41:00,56.7,54.4,30.08,SSE,165,0.0,0.0,92,0.05,,---,0.07,VWS V14.01,2013-11-21 22:41:00,
2013-11-21 16:46:00,56.7,54.4,30.08,SSE,165,0.0,0.0,92,0.06,,---,0.08,VWS V14.01,2013-11-21 22:46:00,
2013-11-21 16:51:00,56.6,54.3,30.08,SSE,165,0.0,0.0,92,0.07,,---,0.09,VWS V14.01,2013-11-21 22:51:00,
2013-11-21 16:56:00,56.4,54.1,30.08,SSE,166,0.0,0.0,92,0.08,,---,0.10,VWS V14.01,2013-11-21 22:56:00,
2013-11-21 17:01:00,56.3,54.0,30.08,SSE,166,0.0,2.0,92,0.09,,---,0.11,VWS V14.01,2013-11-21 23:01:00,
2013-11-21 17:06:00,56.2,53.9,30.07,SSE,166,0.0,0.0,92,0.08,,---,0.12,VWS V14.01,2013-11-21 23:06:00,
2013-11-21 17:11:00,56.1,53.8,30.07,SSE,166,0.0,0.0,92,0.08,,---,0.12,VWS V14.01,2013-11-21 23:11:00,
2013-11-21 17:16:00,56.0,54.0,30.07,SSE,166,0.0,0.0,93,0.08,,---,0.12,VWS V14.01,2013-11-21 23:16:00,
2013-11-21 17:21:00,56.0,54.0,30.07,SSE,166,0.0,0.0,93,0.08,,---,0.12,VWS V14.01,2013-11-21 23:21:00,
2013-11-21 17:26:00,55.9,53.9,30.07,SSE,166,0.0,1.0,93,0.09,,---,0.13,VWS V14.01,2013-11-21 23:26:00,
2013-11-21 17:31:00,56.0,54.0,30.07,SSE,166,0.0,1.0,93,0.09,,---,0.13,VWS V14.01,2013-11-21 23:31:00,
2013-11-21 17:36:00,56.0,54.0,30.08,SSE,166,0.0,0.0,93,0.08,,---,0.13,VWS V14.01,2013-11-21 23:36:00,
2013-11-21 17:41:00,55.9,53.9,30.08,SSE,166,0.0,1.0,93,0.09,,---,0.14,VWS V14.01,2013-11-21 23:41:00,
2013-11-21 17:46:00,55.9,53.9,30.08,SSE,166,0.0,1.0,93,0.09,,---,0.14,VWS V14.01,2013-11-21 23:46:00,
2013-11-21 17:51:00,55.9,53.9,30.07,East,88,2.0,3.0,93,0.10,,---,0.15,VWS V14.01,2013-11-21 23:51:00,
2013-11-21 17:56:00,55.9,53.9,30.07,East,92,0.0,3.0,93,0.10,,---,0.15,VWS V14.01,2013-11-21 23:56:00,
2013-11-21 18:01:00,55.9,53.9,30.07,East,92,0.0,3.0,93,0.10,,---,0.15,VWS V14.01,2013-11-22 00:01:00,
2013-11-21 18:06:00,55.9,54.2,30.07,ESE,109,0.0,3.0,94,0.04,,---,0.15,VWS V14.01,2013-11-22 00:06:00,
2013-11-21 18:11:00,55.8,54.1,30.07,ESE,102,0.0,3.0,94,0.04,,---,0.15,VWS V14.01,2013-11-22 00:11:00,
2013-11-21 18:16:00,55.8,54.1,30.07,ESE,102,0.0,3.0,94,0.04,,---,0.15,VWS V14.01,2013-11-22 00:16:00,
2013-11-21 18:21:00,55.8,54.1,30.06,ESE,109,0.0,4.0,94,0.04,,---,0.15,VWS V14.01,2013-11-22 00:21:00,
2013-11-21 18:26:00,55.8,54.1,30.06,ESE,109,0.0,4.0,94,0.04,,---,0.15,VWS V14.01,2013-11-22 00:26:00,
2013-11-21 18:31:00,55.8,54.1,30.06,ESE,109,0.0,4.0,94,0.04,,---,0.15,VWS V14.01,2013-11-22 00:31:00,
2013-11-21 18:36:00,55.8,54.1,30.06,ESE,109,0.0,1.0,94,0.02,,---,0.15,VWS V14.01,2013-11-22 00:36:00,
2013-11-21 18:41:00,55.8,54.1,30.06,ESE,109,0.0,1.0,94,0.02,,---,0.15,VWS V14.01,2013-11-22 00:41:00,
2013-11-21 18:46:00,55.8,54.1,30.06,ESE,109,0.0,1.0,94,0.03,,---,0.16,VWS V14.01,2013-11-22 00:46:00,
2013-11-21 18:51:00,55.8,54.1,30.06,SE,141,2.0,4.0,94,0.03,,---,0.16,VWS V14.01,2013-11-22 00:51:00,
2013-11-21 18:56:00,55.8,54.1,30.06,SE,140,0.0,4.0,94,0.03,,---,0.16,VWS V14.01,2013-11-22 00:56:00,
2013-11-21 19:01:00,55.8,54.1,30.06,SE,133,0.0,4.0,94,0.03,,---,0.16,VWS V14.01,2013-11-22 01:01:00,
2013-11-21 19:06:00,55.8,54.1,30.06,SSE,155,3.0,4.0,94,0.01,,---,0.16,VWS V14.01,2013-11-22 01:06:00,
2013-11-21 19:11:00,55.8,54.1,30.06,SE,144,0.0,5.0,94,0.01,,---,0.16,VWS V14.01,2013-11-22 01:11:00,
2013-11-21 19:16:00,55.8,54.1,30.06,SE,130,3.0,5.0,94,0.01,,---,0.16,VWS V14.01,2013-11-22 01:16:00,
2013-11-21 19:21:00,55.8,54.1,30.04,ESE,116,1.0,5.0,94,0.01,,---,0.16,VWS V14.01,2013-11-22 01:21:00,
2013-11-21 19:26:00,55.8,54.1,30.04,ESE,121,2.0,5.0,94,0.01,,---,0.16,VWS V14.01,2013-11-22 01:26:00,
2013-11-21 19:31:00,55.9,54.2,30.04,East,101,0.0,5.0,94,0.01,,---,0.16,VWS V14.01,2013-11-22 01:31:00,
2013-11-21 19:36:00,55.9,54.2,30.05,ESE,118,0.0,1.0,94,0.01,,---,0.16,VWS V14.01,2013-11-22 01:36:00,
2013-11-21 19:41:00,55.9,54.2,30.05,SSE,157,0.0,4.0,94,0.01,,---,0.16,VWS V14.01,2013-11-22 01:41:00,
2013-11-21 19:46:00,55.9,54.2,30.05,SE,127,1.0,5.0,94,0.01,,---,0.16,VWS V14.01,2013-11-22 01:46:00,
2013-11-21 19:51:00,55.9,54.2,30.04,SE,134,0.0,5.0,94,0.01,,---,0.16,VWS V14.01,2013-11-22 01:51:00,
2013-11-21 19:56:00,55.9,54.2,30.04,SE,134,2.0,5.0,94,0.01,,---,0.16,VWS V14.01,2013-11-22 01:56:00,
2013-11-21 20:01:00,55.9,54.2,30.04,SSW,196,0.0,5.0,94,0.01,,---,0.16,VWS V14.01,2013-11-22 02:01:00,
2013-11-21 20:06:00,56.0,54.3,30.06,SE,132,0.0,3.0,94,0.00,,---,0.16,VWS V14.01,2013-11-22 02:06:00,
2013-11-21 20:08:00,56.0,54.3,30.06,SE,142,1.0,4.0,94,0.00,,---,0.16,VWS V14.01,2013-11-22 02:08:00,
2013-11-21 20:09:00,56.0,54.3,30.06,SE,142,0.0,4.0,94,0.00,,---,0.16,VWS V14.01,2013-11-22 02:09:00,
2013-11-21 20:14:00,56.0,54.3,30.06,SSE,153,2.0,4.0,94,0.00,,---,0.16,VWS V14.01,2013-11-22 02:14:00,
2013-11-21 20:19:00,56.0,54.3,30.05,SSE,154,0.0,4.0,94,0.00,,---,0.16,VWS V14.01,2013-11-22 02:19:00,
2013-11-21 20:24:00,56.1,54.4,30.05,SSE,152,0.0,4.0,94,0.00,,---,0.16,VWS V14.01,2013-11-22 02:24:00,
2013-11-21 20:29:00,56.1,54.4,30.05,South,170,3.0,4.0,94,0.00,,---,0.16,VWS V14.01,2013-11-22 02:29:00,
2013-11-21 20:34:00,56.1,54.4,30.05,South,171,0.0,0.0,94,0.00,,---,0.16,VWS V14.01,2013-11-22 02:34:00,
2013-11-21 20:39:00,56.1,54.4,30.05,South,180,4.0,4.0,94,0.00,,---,0.16,VWS V14.01,2013-11-22 02:39:00,
2013-11-21 20:44:00,56.2,54.5,30.05,SSE,147,0.0,4.0,94,0.00,,---,0.16,VWS V14.01,2013-11-22 02:44:00,
2013-11-21 20:49:00,56.2,54.5,30.05,SSE,155,0.0,4.0,94,0.00,,---,0.16,VWS V14.01,2013-11-22 02:49:00,
2013-11-21 20:54:00,56.2,54.5,30.05,SSE,161,2.0,4.0,94,0.00,,---,0.16,VWS V14.01,2013-11-22 02:54:00,
2013-11-21 20:59:00,56.2,54.5,30.05,SSE,157,2.0,4.0,94,0.00,,---,0.16,VWS V14.01,2013-11-22 02:59:00,
2013-11-21 21:04:00,56.2,54.5,30.04,SSE,152,0.0,3.0,94,0.00,,---,0.16,VWS V14.01,2013-11-22 03:04:00,
2013-11-21 21:09:00,56.1,54.4,30.04,SSE,157,3.0,5.0,94,0.00,,---,0.16,VWS V14.01,2013-11-22 03:09:00,
2013-11-21 21:14:00,56.1,54.4,30.04,South,169,6.0,6.0,94,0.00,,---,0.16,VWS V14.01,2013-11-22 03:14:00,
2013-11-21 21:19:00,56.2,54.5,30.03,SSE,167,3.0,7.0,94,0.00,,---,0.16,VWS V14.01,2013-11-22 03:19:00,
2013-11-21 21:24:00,56.2,54.2,30.03,SSE,165,1.0,7.0,93,0.00,,---,0.16,VWS V14.01,2013-11-22 03:24:00,
2013-11-21 21:29:00,56.2,54.2,30.03,South,170,1.0,7.0,93,0.00,,---,0.16,VWS V14.01,2013-11-22 03:29:00,
2013-11-21 21:34:00,56.2,54.2,30.04,SSE,158,0.0,2.0,93,0.00,,---,0.16,VWS V14.01,2013-11-22 03:34:00,
2013-11-21 21:39:00,56.2,54.2,30.04,SE,130,0.0,2.0,93,0.00,,---,0.16,VWS V14.01,2013-11-22 03:39:00,
2013-11-21 21:44:00,56.2,54.2,30.04,SSE,161,0.0,4.0,93,0.00,,---,0.16,VWS V14.01,2013-11-22 03:44:00,
2013-11-21 21:49:00,56.2,53.9,30.05,SE,130,0.0,4.0,92,0.00,,---,0.16,VWS V14.01,2013-11-22 03:49:00,
2013-11-21 21:54:00,56.2,53.9,30.05,SE,127,0.0,4.0,92,0.00,,---,0.16,VWS V14.01,2013-11-22 03:54:00,
2013-11-21 21:59:00,56.2,53.9,30.05,SE,127,0.0,4.0,92,0.00,,---,0.16,VWS V14.01,2013-11-22 03:59:00,
2013-11-21 22:04:00,56.2,53.9,30.05,SE,130,0.0,2.0,92,0.00,,---,0.16,VWS V14.01,2013-11-22 04:04:00,
2013-11-21 22:09:00,56.2,53.9,30.05,SE,130,0.0,2.0,92,0.00,,---,0.16,VWS V14.01,2013-11-22 04:09:00,
2013-11-21 22:14:00,56.3,54.0,30.05,SSE,167,0.0,3.0,92,0.00,,---,0.16,VWS V14.01,2013-11-22 04:14:00,
2013-11-21 22:19:00,56.3,54.0,30.05,SSE,167,0.0,3.0,92,0.00,,---,0.16,VWS V14.01,2013-11-22 04:19:00,
2013-11-21 22:24:00,56.3,54.0,30.05,SSE,167,0.0,3.0,92,0.00,,---,0.16,VWS V14.01,2013-11-22 04:24:00,
2013-11-21 22:29:00,56.3,54.0,30.05,SSE,167,0.0,3.0,92,0.00,,---,0.16,VWS V14.01,2013-11-22 04:29:00,
2013-11-21 22:34:00,56.3,54.0,30.05,SSE,164,1.0,4.0,92,0.00,,---,0.16,VWS V14.01,2013-11-22 04:34:00,
2013-11-21 22:39:00,56.3,54.0,30.05,SSE,164,0.0,4.0,92,0.00,,---,0.16,VWS V14.01,2013-11-22 04:39:00,
2013-11-21 22:44:00,56.3,54.0,30.05,SSE,164,3.0,4.0,92,0.00,,---,0.16,VWS V14.01,2013-11-22 04:44:00,
2013-11-21 22:49:00,56.4,54.1,30.05,South,182,0.0,4.0,92,0.00,,---,0.16,VWS V14.01,2013-11-22 04:49:00,
2013-11-21 22:54:00,56.4,54.1,30.05,SSE,163,0.0,4.0,92,0.00,,---,0.16,VWS V14.01,2013-11-22 04:54:00,
2013-11-21 22:59:00,56.5,54.2,30.05,SSE,163,2.0,4.0,92,0.00,,---,0.16,VWS V14.01,2013-11-22 04:59:00,
2013-11-21 23:01:00,56.5,54.2,30.05,SSE,163,0.0,4.0,92,0.00,,---,0.16,VWS V14.01,2013-11-22 05:01:00,
2013-11-21 23:02:00,56.6,54.3,30.04,SSE,163,0.0,0.0,92,0.00,,---,0.16,VWS V14.01,2013-11-22 05:02:00,
2013-11-21 23:07:00,56.7,54.4,30.04,South,176,3.0,4.0,92,0.00,,---,0.16,VWS V14.01,2013-11-22 05:07:00,
2013-11-21 23:12:00,56.8,54.5,30.04,South,176,0.0,4.0,92,0.00,,---,0.16,VWS V14.01,2013-11-22 05:12:00,
2013-11-21 23:17:00,56.9,54.6,30.05,South,175,0.0,4.0,92,0.00,,---,0.16,VWS V14.01,2013-11-22 05:17:00,
2013-11-21 23:22:00,57.0,55.0,30.05,South,169,0.0,4.0,93,0.00,,---,0.16,VWS V14.01,2013-11-22 05:22:00,
2013-11-21 23:27:00,57.3,55.3,30.05,SSE,157,5.0,5.0,93,0.00,,---,0.16,VWS V14.01,2013-11-22 05:27:00,
2013-11-21 23:32:00,57.6,55.6,30.04,South,184,0.0,1.0,93,0.00,,---,0.16,VWS V14.01,2013-11-22 05:32:00,
2013-11-21 23:37:00,57.9,55.9,30.04,South,169,0.0,6.0,93,0.00,,---,0.16,VWS V14.01,2013-11-22 05:37:00,
2013-11-21 23:42:00,58.1,56.1,30.04,SSW,211,2.0,6.0,93,0.00,,---,0.16,VWS V14.01,2013-11-22 05:42:00,
2013-11-21 23:47:00,58.2,55.9,30.04,South,174,9.0,9.0,92,0.00,,---,0.16,VWS V14.01,2013-11-22 05:47:00,
2013-11-21 23:52:00,58.4,56.1,30.04,South,180,4.0,9.0,92,0.00,,---,0.16,VWS V14.01,2013-11-22 05:52:00,
2013-11-21 23:57:00,58.5,56.2,30.04,SW,219,0.0,9.0,92,0.00,,---,0.16,VWS V14.01,2013-11-22 05:57:00,